Regional Weather Roundup
Issued by NWS

Home | Current Version | Previous Version | Text Only | Print | Product List | Glossary On
Versions: 1 2 3 4 5 6 7 8 9 10 11 12 13 14 15 16 17 18 19 20 21 22 23 24 25 26 27 28 29 30 31 32 33 34 35 36 37 38 39 40 41 42 43 44 45 46 47 48 49 50
000
ASUS43 KDTX 251210
RWRMI
MICHIGAN HOURLY REGIONAL WEATHER ROUNDUP
NATIONAL WEATHER SERVICE DETROIT/PONTIAC MI
800 AM EDT SAT JUN 25 2016

NOTE: "FAIR" INDICATES FEW OR NO CLOUDS BELOW 12,000 FEET WITH NO
SIGNIFICANT WEATHER AND/OR OBSTRUCTION TO VISIBILITY.

MIZ047>049-052>055-059>063-066>070-074>076-081>083-251300-
SOUTHEAST LOWER MICHIGAN

CITY           SKY/WX    TMP DP  RH WIND       PRES   REMARKS
ADRIAN         SUNNY     61  58  90 CALM      30.17R
6HR MIN TEMP:  53; 6HR MAX TEMP:  61;

ALMA           SUNNY     63  55  74 S6        30.15S
ANN ARBOR      SUNNY     63  58  83 CALM      30.16R
BAD AXE        SUNNY     63  55  75 CALM      30.17R
CARO           SUNNY     62  55  78 CALM      30.15S
DETROIT CITY   SUNNY     69  57  65 CALM      30.16R
6HR MIN TEMP:  57; 6HR MAX TEMP:  69;

DETROIT        SUNNY     66  56  70 CALM      30.17R
6HR MIN TEMP:  60; 6HR MAX TEMP:  67;

FLINT          SUNNY     69  53  56 SW5       30.16R
6HR MIN TEMP:  55; 6HR MAX TEMP:  69;

HILLSDALE      SUNNY     67  50  56 CALM      30.17R
6HR MIN TEMP:  56; 6HR MAX TEMP:  67;

HOWELL         SUNNY     65  54  65 S3        30.17R

CITY           SKY/WX    TMP DP  RH WIND       PRES   REMARKS
JACKSON        SUNNY     64  57  78 CALM      30.17R
6HR MIN TEMP:  54; 6HR MAX TEMP:  64;

LAMBERTVILLE   SUNNY     64  61  88 CALM      30.16R
6HR MIN TEMP:  56; 6HR MAX TEMP:  64;

LANSING        SUNNY     68  52  56 S7        30.16R
6HR MIN TEMP:  60; 6HR MAX TEMP:  68;

LAPEER         FAIR      61  53  73 E3        30.18R
6HR MIN TEMP:  51; 6HR MAX TEMP:  61;

MASON          SUNNY     63  55  75 SE5       30.16S
MONROE         SUNNY     63  57  80 CALM      30.15R
6HR MIN TEMP:  53; 6HR MAX TEMP:  63;

MT. CLEMENS    SUNNY     67  59  75 CALM      30.15R
6HR MIN TEMP:  54; 6HR MAX TEMP:  67;

PONTIAC        MOSUNNY   67  58  72 CALM      30.17R
6HR MIN TEMP:  55; 6HR MAX TEMP:  67;

PORT HOPE        N/A     67  50  54 SW6       30.14R
6HR MIN TEMP:  58; 6HR MAX TEMP:  67;

PORT HURON     SUNNY     59  55  88 CALM      30.16S
TRI CITIES     SUNNY     67  53  61 S3        30.15R
6HR MIN TEMP:  57; 6HR MAX TEMP:  67;

MIDLAND        FAIR      61  55  80 CALM      30.14S
6HR MIN TEMP:  50; 6HR MAX TEMP:  61;

TROY           SUNNY     67  51  57 CALM      30.18R
SAGINAW HB     SUNNY     64  54  68 SE3       30.14S
$$
MIZ043>046-050>051-056>058-064>065-071>073-077>080-251300-
SOUTHWEST LOWER MICHIGAN

CITY           SKY/WX    TMP DP  RH WIND       PRES   REMARKS
BATTLE CREEK   SUNNY     66  56  70 S6        30.16R
6HR MIN TEMP:  58; 6HR MAX TEMP:  66;

BENTON HARBOR  SUNNY     68  56  65 SE6       30.13R
6HR MIN TEMP:  58; 6HR MAX TEMP:  68;

BIG RAPIDS     SUNNY     58  55  88 MISG      30.14R
6HR MIN TEMP:  52; 6HR MAX TEMP:  58;

COLDWATER      SUNNY     65  56  70 CALM      30.16R
6HR MIN TEMP:  57; 6HR MAX TEMP:  65;

FREMONT        FAIR      65  54  68 CALM      30.12R
HOLLAND        SUNNY     67  56  67 S6        30.13R
6HR MIN TEMP:  58; 6HR MAX TEMP:  67;

GRAND RAPIDS   MOSUNNY   67  56  67 S6        30.14R
6HR MIN TEMP:  57; 6HR MAX TEMP:  67;

IONIA          FAIR      66  54  63 CALM      30.14R
6HR MIN TEMP:  54; 6HR MAX TEMP:  66;

KALAMAZOO      SUNNY     67  56  67 S5        30.15R
6HR MIN TEMP:  59; 6HR MAX TEMP:  67;

LUDINGTON      SUNNY     63  54  72 CALM      30.11R
6HR MIN TEMP:  49; 6HR MAX TEMP:  63;

MARSHALL       SUNNY     65  55  70 CALM      30.15S
6HR MIN TEMP:  55; 6HR MAX TEMP:  65;

MOUNT PLEASANT SUNNY     61  57  87 CALM      30.14R
6HR MIN TEMP:  52; 6HR MAX TEMP:  61;

MUSKEGON       SUNNY     67  55  65 SE3       30.12R
6HR MIN TEMP:  57; 6HR MAX TEMP:  67;

SOUTH HAVEN    SUNNY     66  56  70 S5        30.13R HAZE
$$
MIZ016>042-251300-
NORTHERN LOWER MICHIGAN

CITY           SKY/WX    TMP DP  RH WIND       PRES   REMARKS
ALPENA         SUNNY     63  54  72 CALM      30.13S
6HR MIN TEMP:  49; 6HR MAX TEMP:  63;

BEAVER ISLAND  SUNNY     70  53  54 S5        30.09S
6HR MIN TEMP:  52; 6HR MAX TEMP:  70;

BELLAIRE       SUNNY     61  53  76 CALM      30.12R
6HR MIN TEMP:  49; 6HR MAX TEMP:  61;

CADILLAC       SUNNY     60  51  71 CALM      30.13R
CHARLEVOIX     SUNNY     64  53  68 SE5       30.13R
FRANKFORT      SUNNY     66  55  66 SE3       30.10S
GAYLORD        SUNNY     65  55  70 CALM      30.14R
6HR MIN TEMP:  52; 6HR MAX TEMP:  65;

GRAYLING       SUNNY     59  53  81 CALM      30.15R
HARBOR SPRINGS SUNNY     64  52  66 NE3       30.11R
HOUGHTON LAKE  SUNNY     60  56  86 CALM      30.15R
6HR MIN TEMP:  50; 6HR MAX TEMP:  60;

MANISTEE       SUNNY     58  52  80 E5        30.11R
OSCODA         SUNNY     65  58  79 CALM      30.14R
6HR MIN TEMP:  52; 6HR MAX TEMP:  65;

PELLSTON       SUNNY     61  51  70 CALM      30.11S
6HR MIN TEMP:  45; 6HR MAX TEMP:  61;

ROGERS CITY    SUNNY     68  55  62 CALM      30.13R
TRAVERSE CITY  MOSUNNY   67  52  58 S6        30.10R
6HR MIN TEMP:  57; 6HR MAX TEMP:  67;

$$
MIZ007>008-015-251300-
EASTERN UPPER MICHIGAN

CITY           SKY/WX    TMP DP  RH WIND       PRES   REMARKS
KINROSS        SUNNY     68  50  52 SE3       30.12
6HR MIN TEMP:  54; 6HR MAX TEMP:  68;

MACKINAC ISLAN MOSUNNY   67  49  53 S5        30.10R
NEWBERRY       SUNNY     64  54  71 S6        30.09S
6HR MIN TEMP:  52; 6HR MAX TEMP:  64;

S. S. MARIE    SUNNY     61  53  75 E3        30.11R
6HR MIN TEMP:  56; 6HR MAX TEMP:  61;

MUNISING         N/A     66  57  72 S7        30.04S
6HR MIN TEMP:  59; 6HR MAX TEMP:  66;

$$
MIZ004>006-011>014-085-251300-
CENTRAL UPPER MICHIGAN

CITY           SKY/WX    TMP DP  RH WIND       PRES   REMARKS
MANISTIQUE     SUNNY     64  58  83 S5        30.08S
6HR MIN TEMP:  54; 6HR MAX TEMP:  64;

ESCANABA         N/A    N/A N/A N/A MISG        N/A
MENOMINEE      SUNNY     68  61  78 S6        30.06S
6HR MIN TEMP:  63; 6HR MAX TEMP:  68;

SAWYER-GWINN   SUNNY     61  54  77 S9        30.05S
$$
MIZ001>003-009>011-084-251300-
WESTERN UPPER MICHIGAN

CITY           SKY/WX    TMP DP  RH WIND       PRES   REMARKS
IRON MOUNTAIN  MOSUNNY   63  55  75 SE7       30.03R
6HR MIN TEMP:  59; 6HR MAX TEMP:  67;

HOUGHTON       CLOUDY    66  56  70 S7        29.98S
6HR MIN TEMP:  54; 6HR MAX TEMP:  66;

COPPER HARBOR    N/A     70  56  61 SW10      29.95F
6HR MIN TEMP:  64; 6HR MAX TEMP:  70;

IRONWOOD       MOSUNNY   68  63  83 S8        29.90F
6HR MIN TEMP:  66; 6HR MAX TEMP:  70;

$$

ABBREVIATIONS USED IN REMARKS
   TC - TEMPERATURE IN CELSIUS
  WCI - WIND CHILL INDEX
   HX - HEAT INDEX
  VSB - VISIBILITY





USA.gov is the U.S. government's official web portal to all federal, state and local government web resources and services.